,,Stat6,,Stat2,,Stat8,,Stat9,,Stat10,,Wind1,,Wind1,
time,status,PA1M_AVG,status,PR1M_SUM,status,RH1M_AVG,status,SR1M_AVG,status,TA1M_AVG,status,W1dAve1m,status,W1sAve1m,
2006-11-28, 07:00:02,VALID,917.274,VALID,0,VALID,100,VALID,-0.0339617,VALID,18.9032,VALID,1,VALID,0.719122,
2006-11-28, 07:01:00,VALID,917.262,VALID,0,VALID,100,VALID,0,VALID,18.8771,VALID,1,VALID,0.962713,
2006-11-28, 07:02:00,VALID,917.266,VALID,0,VALID,100,VALID,0,VALID,18.8674,VALID,354,VALID,0.955788,
2006-11-28, 07:03:01,VALID,917.25,VALID,0,VALID,100,VALID,-0.0169808,VALID,18.8412,VALID,324,VALID,0.997024,
2006-11-28, 07:04:00,VALID,917.251,VALID,0,VALID,100,VALID,0,VALID,18.8349,VALID,347,VALID,0.936328,
2006-11-28, 07:05:01,VALID,917.25,VALID,0,VALID,100,VALID,-0.0169808,VALID,18.8349,VALID,328,VALID,0.979833,
2006-11-28, 07:06:00,VALID,917.247,VALID,0,VALID,100,VALID,-0.0169808,VALID,18.8352,VALID,323,VALID,0.767805,
2006-11-28, 07:07:00,VALID,917.241,VALID,0,VALID,100,VALID,0.0169808,VALID,18.8379,VALID,327,VALID,0.569404,
2006-11-28, 07:08:01,VALID,917.239,VALID,0,VALID,100,VALID,0,VALID,18.8285,VALID,348,VALID,1.03579,
2006-11-28, 07:09:00,VALID,917.241,VALID,0,VALID,100,VALID,0,VALID,18.8319,VALID,353,VALID,0.527521,
2006-11-28, 07:10:01,VALID,917.24,VALID,0,VALID,100,VALID,0,VALID,18.8322,VALID,345,VALID,0.835938,
2006-11-28, 07:11:00,VALID,917.241,VALID,0,VALID,100,VALID,-0.0339617,VALID,18.8282,VALID,343,VALID,0.988653,
2006-11-28, 07:12:01,VALID,917.242,VALID,0,VALID,100,VALID,0,VALID,18.8119,VALID,340,VALID,0.893293,
2006-11-28, 07:13:00,VALID,917.231,VALID,0,VALID,100,VALID,-0.0169808,VALID,18.8119,VALID,337,VALID,0.921875,
2006-11-28, 07:14:00,VALID,917.235,VALID,0,VALID,100,VALID,0.0169808,VALID,18.8027,VALID,340,VALID,1.21145,
2006-11-28, 07:15:00,VALID,917.228,VALID,0,VALID,100,VALID,0,VALID,18.8066,VALID,325,VALID,1.03627,
2006-11-28, 07:16:00,VALID,917.221,VALID,0.2,VALID,100,VALID,0.0169808,VALID,18.7865,VALID,324,VALID,0.828887,
2006-11-28, 07:17:00,VALID,917.205,VALID,0,VALID,100,VALID,-0.0339617,VALID,18.7835,VALID,349,VALID,0.880469,
2006-11-28, 07:18:00,VALID,917.198,VALID,0,VALID,100,VALID,-0.0169808,VALID,18.7739,VALID,336,VALID,0.758003,
2006-11-28, 07:19:01,VALID,917.187,VALID,0,VALID,100,VALID,0,VALID,18.751,VALID,350,VALID,0.982227,
2006-11-28, 07:20:01,VALID,917.181,VALID,0,VALID,100,VALID,0.0169808,VALID,18.7243,VALID,354,VALID,1.0013,
2006-11-28, 07:21:01,VALID,917.174,VALID,0,VALID,100,VALID,0,VALID,18.7314,VALID,344,VALID,0.658558,
2006-11-28, 07:22:00,VALID,917.17,VALID,0,VALID,100,VALID,0,VALID,18.7287,VALID,345,VALID,0.952415,
2006-11-28, 07:23:00,VALID,917.167,VALID,0,VALID,100,VALID,0,VALID,18.7188,VALID,349,VALID,0.974516,
2006-11-28, 07:24:01,VALID,917.154,VALID,0.2,VALID,100,VALID,0.0339617,VALID,18.7021,VALID,344,VALID,1.14755,
2006-11-28, 07:25:00,VALID,917.15,VALID,0,VALID,100,VALID,0.0169808,VALID,18.6927,VALID,356,VALID,1.0823,
2006-11-28, 07:26:01,VALID,917.14,VALID,0,VALID,100,VALID,0,VALID,18.6932,VALID,352,VALID,0.948864,
2006-11-28, 07:27:00,VALID,917.146,VALID,0,VALID,100,VALID,0,VALID,18.6929,VALID,1,VALID,0.973437,
2006-11-28, 07:28:01,VALID,917.13,VALID,0,VALID,100,VALID,0,VALID,18.6927,VALID,11,VALID,1.0811,
2006-11-28, 07:29:01,VALID,917.124,VALID,0.2,VALID,100,VALID,0,VALID,18.6895,VALID,11,VALID,0.93859,
2006-11-28, 07:30:01,VALID,917.119,VALID,0,VALID,100,VALID,0.0169808,VALID,18.6964,VALID,10,VALID,0.931734,
2006-11-28, 07:31:00,VALID,917.104,VALID,0,VALID,100,VALID,0,VALID,18.7095,VALID,24,VALID,0.936773,
2006-11-28, 07:32:01,VALID,917.096,VALID,0.2,VALID,100,VALID,0.0339617,VALID,18.7158,VALID,33,VALID,0.707667,
2006-11-28, 07:33:00,VALID,917.083,VALID,0,VALID,100,VALID,0.0169808,VALID,18.6999,VALID,27,VALID,0.750679,
2006-11-28, 07:34:01,VALID,917.079,VALID,0,VALID,100,VALID,0,VALID,18.6897,VALID,21,VALID,0.877232,
2006-11-28, 07:35:00,VALID,917.06,VALID,0.2,VALID,100,VALID,0,VALID,18.6964,VALID,27,VALID,0.857088,
2006-11-28, 07:36:01,VALID,917.066,VALID,0,VALID,100,VALID,-0.0169808,VALID,18.6934,VALID,22,VALID,0.918826,
2006-11-28, 07:37:01,VALID,917.055,VALID,0,VALID,100,VALID,-0.0169808,VALID,18.6768,VALID,18,VALID,1.00462,
2006-11-28, 07:38:01,VALID,917.065,VALID,0,VALID,100,VALID,0.0169808,VALID,18.68,VALID,10,VALID,0.955966,
2006-11-28, 07:39:00,VALID,917.051,VALID,0.2,VALID,100,VALID,0,VALID,18.6805,VALID,14,VALID,0.87358,
2006-11-28, 07:40:00,VALID,917.055,VALID,0,VALID,100,VALID,0,VALID,18.677,VALID,15,VALID,0.809211,
2006-11-28, 07:41:01,VALID,917.038,VALID,0,VALID,100,VALID,0,VALID,18.6874,VALID,21,VALID,0.703697,
2006-11-28, 07:42:01,VALID,917.021,VALID,0,VALID,100,VALID,0,VALID,18.6641,VALID,16,VALID,0.834896,
2006-11-28, 07:43:01,VALID,917.012,VALID,0.2,VALID,100,VALID,-0.0169808,VALID,18.6706,VALID,23,VALID,0.916667,
2006-11-28, 07:44:01,VALID,916.975,VALID,0,VALID,100,VALID,0,VALID,18.6681,VALID,26,VALID,0.941584,
2006-11-28, 07:45:01,VALID,916.969,VALID,0,VALID,100,VALID,0.0169808,VALID,18.6577,VALID,36,VALID,0.809152,
2006-11-28, 07:46:01,VALID,916.945,VALID,0.2,VALID,100,VALID,0,VALID,18.6485,VALID,36,VALID,0.868278,
2006-11-28, 07:47:00,VALID,916.929,VALID,0,VALID,100,VALID,0,VALID,18.6517,VALID,38,VALID,0.824574,
2006-11-28, 07:48:01,VALID,916.925,VALID,0,VALID,100,VALID,0,VALID,18.6581,VALID,46,VALID,0.916853,
2006-11-28, 07:49:00,VALID,916.92,VALID,0,VALID,100,VALID,0,VALID,18.6611,VALID,37,VALID,0.602493,
2006-11-28, 07:50:01,VALID,916.918,VALID,0.2,VALID,100,VALID,0,VALID,18.6646,VALID,39,VALID,0.495703,
2006-11-28, 07:51:01,VALID,916.909,VALID,0,VALID,100,VALID,-0.0339617,VALID,18.6743,VALID,44,VALID,0.780705,
2006-11-28, 07:52:00,VALID,916.911,VALID,0,VALID,100,VALID,0,VALID,18.6708,VALID,34,VALID,0.855655,
2006-11-28, 07:53:01,VALID,916.926,VALID,0,VALID,100,VALID,0,VALID,18.6706,VALID,26,VALID,1.10709,
2006-11-28, 07:54:01,VALID,916.933,VALID,0,VALID,100,VALID,-0.0169808,VALID,18.6874,VALID,11,VALID,0.819169,
2006-11-28, 07:55:01,VALID,916.924,VALID,0.2,VALID,100,VALID,-0.0339617,VALID,18.674,VALID,18,VALID,1.19283,
2006-11-28, 07:56:01,VALID,916.924,VALID,0,VALID,100,VALID,-0.0339617,VALID,18.671,VALID,12,VALID,1.31345,
2006-11-28, 07:57:01,VALID,916.918,VALID,0,VALID,100,VALID,-0.0169808,VALID,18.6584,VALID,9,VALID,1.11755,
2006-11-28, 07:58:01,VALID,916.903,VALID,0,VALID,100,VALID,-0.0169808,VALID,18.6519,VALID,4,VALID,1.1092,
2006-11-28, 07:59:00,VALID,916.9,VALID,0,VALID,100,VALID,-0.0169808,VALID,18.6321,VALID,15,VALID,1.40825,
2006-11-28, 08:00:01,VALID,916.88,VALID,0,VALID,100,VALID,0,VALID,18.645,VALID,18,VALID,1.4388,
2006-11-28, 08:01:01,VALID,916.876,VALID,0,VALID,100,VALID,0,VALID,18.6381,VALID,17,VALID,1.10045,
2006-11-28, 08:02:01,VALID,916.85,VALID,0,VALID,100,VALID,0.0169808,VALID,18.6487,VALID,30,VALID,1.12344,
2006-11-28, 08:03:01,VALID,916.841,VALID,0,VALID,100,VALID,0.0169808,VALID,18.6422,VALID,28,VALID,1.19872,
2006-11-28, 08:04:01,VALID,916.832,VALID,0.2,VALID,100,VALID,0,VALID,18.6321,VALID,27,VALID,0.7629,
2006-11-28, 08:05:01,VALID,916.829,VALID,0,VALID,100,VALID,0,VALID,18.6123,VALID,31,VALID,1.08803,
2006-11-28, 08:06:01,VALID,916.825,VALID,0,VALID,100,VALID,0,VALID,18.6222,VALID,19,VALID,0.817336,
2006-11-28, 08:07:01,VALID,916.817,VALID,0,VALID,100,VALID,0,VALID,18.6192,VALID,23,VALID,0.447674,
2006-11-28, 08:08:01,VALID,916.806,VALID,0,VALID,100,VALID,0,VALID,18.6162,VALID,39,VALID,0.283482,
2006-11-28, 08:09:01,VALID,916.785,VALID,0,VALID,100,VALID,0,VALID,18.6256,VALID,41,VALID,0.448103,
2006-11-28, 08:10:01,VALID,916.786,VALID,0,VALID,100,VALID,-0.0169808,VALID,18.6263,VALID,23,VALID,0.838299,
2006-11-28, 08:11:01,VALID,916.781,VALID,0,VALID,100,VALID,-0.0339617,VALID,18.6229,VALID,29,VALID,0.557413,
2006-11-28, 08:12:01,VALID,916.763,VALID,0,VALID,100,VALID,0,VALID,18.6259,VALID,34,VALID,0.638867,
2006-11-28, 08:13:01,VALID,916.747,VALID,0,VALID,100,VALID,0,VALID,18.6355,VALID,36,VALID,0.776526,
2006-11-28, 08:14:01,VALID,916.752,VALID,0,VALID,100,VALID,-0.0169808,VALID,18.6261,VALID,30,VALID,1.12574,
2006-11-28, 08:15:01,VALID,916.743,VALID,0.2,VALID,100,VALID,-0.0169808,VALID,18.6358,VALID,26,VALID,1.11773,
2006-11-28, 08:16:01,VALID,916.736,VALID,0,VALID,100,VALID,0,VALID,18.642,VALID,16,VALID,0.705729,
2006-11-28, 08:17:01,VALID,916.737,VALID,0,VALID,100,VALID,-0.0339617,VALID,18.6321,VALID,30,VALID,0.939596,
2006-11-28, 08:18:01,VALID,916.728,VALID,0,VALID,100,VALID,0,VALID,18.6291,VALID,25,VALID,0.831759,
2006-11-28, 08:19:01,VALID,916.728,VALID,0,VALID,100,VALID,-0.0169808,VALID,18.6358,VALID,19,VALID,0.842516,
2006-11-28, 08:20:01,VALID,916.734,VALID,0,VALID,100,VALID,0,VALID,18.636,VALID,15,VALID,1.13462,
2006-11-28, 08:21:00,VALID,916.73,VALID,0,VALID,100,VALID,-0.0339617,VALID,18.636,VALID,23,VALID,1.1248,
2006-11-28, 08:22:00,VALID,916.742,VALID,0,VALID,100,VALID,0,VALID,18.6326,VALID,11,VALID,1.18791,
2006-11-28, 08:23:00,VALID,916.765,VALID,0,VALID,100,VALID,0,VALID,18.6222,VALID,356,VALID,0.965774,
2006-11-28, 08:24:00,VALID,916.777,VALID,0.2,VALID,100,VALID,0,VALID,18.6159,VALID,357,VALID,0.957317,
2006-11-28, 08:25:00,VALID,916.803,VALID,0,VALID,100,VALID,0,VALID,18.6259,VALID,345,VALID,1.1339,
2006-11-28, 08:26:00,VALID,916.827,VALID,0,VALID,100,VALID,0,VALID,18.6097,VALID,320,VALID,1.46021,
2006-11-28, 08:27:00,VALID,916.839,VALID,0,VALID,100,VALID,0,VALID,18.6132,VALID,309,VALID,1.20803,
2006-11-28, 08:28:00,VALID,916.854,VALID,0,VALID,100,VALID,0,VALID,18.6132,VALID,320,VALID,1.23401,
2006-11-28, 08:29:00,VALID,916.876,VALID,0,VALID,100,VALID,-0.0169808,VALID,18.6035,VALID,329,VALID,1.08125,
2006-11-28, 08:30:00,VALID,916.873,VALID,0,VALID,100,VALID,-0.0679233,VALID,18.5869,VALID,345,VALID,0.768864,
2006-11-28, 08:31:00,VALID,916.878,VALID,0.2,VALID,100,VALID,-0.0169808,VALID,18.5874,VALID,351,VALID,0.857922,
2006-11-28, 08:32:00,VALID,916.863,VALID,0,VALID,100,VALID,0,VALID,18.5904,VALID,350,VALID,0.592773,
2006-11-28, 08:33:00,VALID,916.859,VALID,0,VALID,100,VALID,-0.0169808,VALID,18.6102,VALID,346,VALID,0.549237,
2006-11-28, 08:34:00,VALID,916.861,VALID,0.2,VALID,100,VALID,-0.0169808,VALID,18.5998,VALID,359,VALID,0.890625,
2006-11-28, 08:35:00,VALID,916.861,VALID,0,VALID,100,VALID,-0.0169808,VALID,18.6095,VALID,4,VALID,0.576527,
2006-11-28, 08:36:00,VALID,916.859,VALID,0,VALID,100,VALID,-0.0169808,VALID,18.6226,VALID,23,VALID,0.588415,
2006-11-28, 08:37:00,VALID,916.869,VALID,0.2,VALID,100,VALID,0,VALID,18.6123,VALID,23,VALID,0.34189,
2006-11-28, 08:38:00,VALID,916.878,VALID,0,VALID,100,VALID,0,VALID,18.6293,VALID,21,VALID,0.566406,
2006-11-28, 08:39:00,VALID,916.872,VALID,0,VALID,100,VALID,-0.0339617,VALID,18.6192,VALID,40,VALID,0.827753,
2006-11-28, 08:40:00,VALID,916.875,VALID,0.2,VALID,100,VALID,-0.0169808,VALID,18.6291,VALID,30,VALID,1.06131,
2006-11-28, 08:41:00,VALID,916.876,VALID,0,VALID,100,VALID,-0.0339617,VALID,18.6323,VALID,17,VALID,0.583734,
2006-11-28, 08:42:00,VALID,916.868,VALID,0,VALID,100,VALID,-0.0169808,VALID,18.6362,VALID,13,VALID,0.835938,
2006-11-28, 08:43:00,VALID,916.855,VALID,0.2,VALID,100,VALID,-0.0679233,VALID,18.6261,VALID,360,VALID,0.736753,
2006-11-28, 08:44:00,VALID,916.86,VALID,0,VALID,100,VALID,-0.0509425,VALID,18.6328,VALID,327,VALID,0.494922,
2006-11-28, 08:45:00,VALID,916.865,VALID,0,VALID,100,VALID,-0.0339617,VALID,18.6189,VALID,352,VALID,0.731831,
2006-11-28, 08:46:00,VALID,916.875,VALID,0,VALID,100,VALID,-0.0339617,VALID,18.613,VALID,338,VALID,0.867733,
2006-11-28, 08:47:00,VALID,916.871,VALID,0,VALID,100,VALID,-0.0339617,VALID,18.6162,VALID,332,VALID,0.558503,
2006-11-28, 08:48:00,VALID,916.876,VALID,0,VALID,100,VALID,-0.0339617,VALID,18.6192,VALID,345,VALID,0.907422,
2006-11-28, 08:49:00,VALID,916.876,VALID,0,VALID,100,VALID,-0.0169808,VALID,18.61,VALID,336,VALID,0.908612,
2006-11-28, 08:50:00,VALID,916.876,VALID,0.2,VALID,100,VALID,-0.0169808,VALID,18.5968,VALID,315,VALID,0.952934,
2006-11-28, 08:51:00,VALID,916.875,VALID,0,VALID,100,VALID,-0.0339617,VALID,18.6067,VALID,301,VALID,0.646802,
2006-11-28, 08:52:00,VALID,916.882,VALID,0,VALID,100,VALID,-0.0339617,VALID,18.5966,VALID,322,VALID,0.498935,
2006-11-28, 08:53:00,VALID,916.897,VALID,0,VALID,100,VALID,-0.0339617,VALID,18.5934,VALID,4,VALID,0.516927,
2006-11-28, 08:54:00,VALID,916.911,VALID,0,VALID,100,VALID,0,VALID,18.6003,VALID,4,VALID,0.545015,
2006-11-28, 08:55:00,VALID,916.908,VALID,0,VALID,100,VALID,-0.0169808,VALID,18.5899,VALID,360,VALID,0.499414,
2006-11-28, 08:56:00,VALID,916.918,VALID,0,VALID,100,VALID,-0.0169808,VALID,18.5968,VALID,353,VALID,0.402604,
2006-11-28, 08:57:00,VALID,916.926,VALID,0,VALID,100,VALID,-0.0169808,VALID,18.6067,VALID,341,VALID,0.128227,
2006-11-28, 08:58:00,VALID,916.951,VALID,0,VALID,100,VALID,-0.0339617,VALID,18.5906,VALID,341,VALID,0,
2006-11-28, 08:59:00,VALID,916.968,VALID,0,VALID,100,VALID,0.0169808,VALID,18.5998,VALID,341,VALID,0.192264,
2006-11-28, 09:00:00,VALID,916.984,VALID,0,VALID,100,VALID,0.101885,VALID,18.606,VALID,55,VALID,0.255757,
2006-11-28, 09:01:00,VALID,916.998,VALID,0,VALID,100,VALID,0.0679233,VALID,18.5952,VALID,64,VALID,0.0960069,
2006-11-28, 09:02:00,VALID,917.003,VALID,0.2,VALID,100,VALID,0.0849042,VALID,18.5986,VALID,64,VALID,0.191964,
2006-11-28, 09:03:00,VALID,917.015,VALID,0,VALID,100,VALID,0.101885,VALID,18.6023,VALID,64,VALID,0.123224,
2006-11-28, 09:04:00,VALID,917.013,VALID,0,VALID,100,VALID,0.0849042,VALID,18.6051,VALID,93,VALID,0.574591,
2006-11-28, 09:05:00,VALID,917.016,VALID,0,VALID,100,VALID,0.0509425,VALID,18.6316,VALID,141,VALID,0.567508,
2006-11-28, 09:06:00,VALID,917.02,VALID,0,VALID,100,VALID,0.0849042,VALID,18.6279,VALID,142,VALID,0.214453,
2006-11-28, 09:07:00,VALID,917.032,VALID,0,VALID,100,VALID,0.0849042,VALID,18.6376,VALID,142,VALID,0.0816592,
2006-11-28, 09:08:00,VALID,917.055,VALID,0,VALID,100,VALID,0.0509425,VALID,18.6542,VALID,142,VALID,0.040968,
2006-11-28, 09:09:00,VALID,917.059,VALID,0,VALID,100,VALID,0.0679233,VALID,18.647,VALID,142,VALID,0,
2006-11-28, 09:10:00,VALID,917.052,VALID,0,VALID,100,VALID,0.0849042,VALID,18.6634,VALID,142,VALID,0.0012429,
2006-11-28, 09:11:00,VALID,917.039,VALID,0,VALID,100,VALID,0,VALID,18.6909,VALID,142,VALID,0,
2006-11-28, 09:13:00,VALID,917.033,VALID,0,VALID,100,VALID,0,VALID,18.6954,VALID,189,VALID,0.595312,
2006-11-28, 09:14:00,VALID,917.022,VALID,0,VALID,100,VALID,0,VALID,18.6738,VALID,205,VALID,0.777058,
2006-11-28, 09:15:00,VALID,917.016,VALID,0,VALID,100,VALID,0,VALID,18.6418,VALID,270,VALID,0.59003,
2006-11-28, 09:16:00,VALID,916.998,VALID,0.2,VALID,100,VALID,0.0339617,VALID,18.615,VALID,270,VALID,0.395597,
2006-11-28, 09:17:00,VALID,916.998,VALID,0,VALID,100,VALID,0.0169808,VALID,18.603,VALID,260,VALID,0.396839,
2006-11-28, 09:18:00,VALID,916.987,VALID,0,VALID,100,VALID,-0.101885,VALID,18.5747,VALID,260,VALID,0.294922,
2006-11-28, 09:20:00,VALID,916.946,VALID,0,VALID,100,VALID,-0.0254712,VALID,18.584,VALID,260,VALID,0.195937,
2006-11-28, 10:12:00,VALID,917.542,VALID,0,VALID,100,VALID,162.328,VALID,19.175,VALID,42,VALID,0.692522,
2006-11-28, 10:13:00,VALID,917.525,VALID,0,VALID,100,VALID,165.156,VALID,19.143,VALID,39,VALID,1.26417,
2006-11-28, 10:14:00,VALID,917.517,VALID,0,VALID,100,VALID,169.791,VALID,19.0812,VALID,14,VALID,1.51669,
2006-11-28, 10:15:00,VALID,917.532,VALID,0,VALID,100,VALID,175.497,VALID,19.1298,VALID,34,VALID,1.1673,
2006-11-28, 10:16:00,VALID,917.542,VALID,0,VALID,100,VALID,178.604,VALID,19.1132,VALID,52,VALID,1.17626,
2006-11-28, 10:17:00,VALID,917.557,VALID,0,VALID,100,VALID,183.597,VALID,19.1294,VALID,29,VALID,1.21003,
2006-11-28, 10:18:00,VALID,917.58,VALID,0,VALID,100,VALID,187.604,VALID,19.1328,VALID,31,VALID,1.7242,
2006-11-28, 10:19:00,VALID,917.584,VALID,0,VALID,100,VALID,190.932,VALID,19.0941,VALID,30,VALID,1.74051,
2006-11-28, 10:20:00,VALID,917.594,VALID,0,VALID,100,VALID,198.727,VALID,19.1105,VALID,19,VALID,1.3428,
2006-11-28, 10:21:00,VALID,917.583,VALID,0,VALID,100,VALID,202.734,VALID,19.178,VALID,17,VALID,1.25391,
2006-11-28, 10:22:00,VALID,917.594,VALID,0,VALID,100,VALID,207.76,VALID,19.2103,VALID,4,VALID,0.945508,
2006-11-28, 10:23:00,VALID,917.582,VALID,0,VALID,100,VALID,213.228,VALID,19.2875,VALID,11,VALID,0.912574,
2006-11-28, 10:24:00,VALID,917.583,VALID,0,VALID,100,VALID,218.187,VALID,19.359,VALID,14,VALID,0.757254,
2006-11-28, 10:25:00,VALID,917.58,VALID,0,VALID,100,VALID,222.449,VALID,19.3749,VALID,7,VALID,1.12936,
2006-11-28, 10:26:00,VALID,917.57,VALID,0,VALID,100,VALID,226.405,VALID,19.3943,VALID,30,VALID,0.908668,
2006-11-28, 10:27:00,VALID,917.563,VALID,0,VALID,100,VALID,230.736,VALID,19.3578,VALID,14,VALID,1.57177,
2006-11-28, 10:28:00,VALID,917.549,VALID,0,VALID,100,VALID,235.575,VALID,19.3772,VALID,11,VALID,1.44289,
2006-11-28, 10:29:00,VALID,917.532,VALID,0,VALID,100,VALID,239.956,VALID,19.3541,VALID,19,VALID,0.889757,
2006-11-28, 10:30:00,VALID,917.515,VALID,0,VALID,100,VALID,244.83,VALID,19.3377,VALID,11,VALID,1.71466,
2006-11-28, 10:31:00,VALID,917.493,VALID,0,VALID,100,VALID,248.939,VALID,19.2858,VALID,9,VALID,1.62222,
2006-11-28, 10:32:00,VALID,917.486,VALID,0,VALID,100,VALID,253.371,VALID,19.3439,VALID,27,VALID,1.26738,
2006-11-28, 10:33:00,VALID,917.465,VALID,0,VALID,100,VALID,259.892,VALID,19.4601,VALID,35,VALID,0.835392,
2006-11-28, 10:34:00,VALID,917.465,VALID,0,VALID,100,VALID,265.852,VALID,19.5729,VALID,49,VALID,0.97061,
2006-11-28, 10:35:00,VALID,917.458,VALID,0,VALID,100,VALID,270.674,VALID,19.5696,VALID,47,VALID,1.43693,
2006-11-28, 10:36:00,VALID,917.446,VALID,0,VALID,100,VALID,275.344,VALID,19.5083,VALID,49,VALID,0.982088,
2006-11-28, 10:37:00,VALID,917.442,VALID,0,VALID,100,VALID,280.999,VALID,19.4986,VALID,35,VALID,1.60671,
2006-11-28, 10:38:00,VALID,917.444,VALID,0,VALID,100,VALID,285.702,VALID,19.4371,VALID,38,VALID,1.31587,
2006-11-28, 10:39:00,VALID,917.431,VALID,0,VALID,100,VALID,291.102,VALID,19.4663,VALID,31,VALID,1.34502,
2006-11-28, 10:40:00,VALID,917.428,VALID,0,VALID,100,VALID,296.112,VALID,19.447,VALID,39,VALID,1.79018,
2006-11-28, 10:41:00,VALID,917.416,VALID,0,VALID,100,VALID,301.851,VALID,19.4919,VALID,32,VALID,1.24023,
2006-11-28, 10:42:00,VALID,917.408,VALID,0,VALID,100,VALID,306.538,VALID,19.6096,VALID,44,VALID,0.890278,
2006-11-28, 10:43:00,VALID,917.408,VALID,0,VALID,100,VALID,312.566,VALID,19.6712,VALID,38,VALID,0.67133,
2006-11-28, 10:44:00,VALID,917.416,VALID,0,VALID,100,VALID,323.179,VALID,19.7191,VALID,38,VALID,1.20494,
2006-11-28, 10:45:00,VALID,917.394,VALID,0,VALID,100,VALID,332.502,VALID,19.7,VALID,30,VALID,1.10733,
2006-11-28, 10:46:00,VALID,917.394,VALID,0,VALID,100,VALID,336.781,VALID,19.7191,VALID,354,VALID,0.377131,
2006-11-28, 10:47:00,VALID,917.385,VALID,0,VALID,100,VALID,345.034,VALID,19.7194,VALID,39,VALID,1.45926,
2006-11-28, 10:48:00,VALID,917.378,VALID,0,VALID,100,VALID,352.081,VALID,19.706,VALID,51,VALID,1.28516,
2006-11-28, 10:49:00,VALID,917.373,VALID,0,VALID,100,VALID,359.671,VALID,19.7772,VALID,26,VALID,1.04821,
2006-11-28, 10:50:00,VALID,917.362,VALID,0,VALID,100,VALID,367.177,VALID,19.9352,VALID,58,VALID,1.03301,
2006-11-28, 10:51:00,VALID,917.36,VALID,0,VALID,100,VALID,373.052,VALID,19.9866,VALID,42,VALID,1.19308,
2006-11-28, 10:52:00,VALID,917.369,VALID,0,VALID,100,VALID,378.418,VALID,20.0546,VALID,50,VALID,0.959032,
2006-11-28, 10:53:00,VALID,917.357,VALID,0,VALID,100,VALID,384.48,VALID,20.1415,VALID,54,VALID,0.603468,
2006-11-28, 10:54:00,VALID,917.371,VALID,0,VALID,100,VALID,390.321,VALID,20.2053,VALID,26,VALID,1.03398,
2006-11-28, 10:55:00,VALID,917.362,VALID,0,VALID,100,VALID,392.495,VALID,20.2091,VALID,48,VALID,0.909624,
2006-11-28, 10:56:00,VALID,917.349,VALID,0,VALID,100,VALID,391.612,VALID,20.1631,VALID,48,VALID,0.949041,
2006-11-28, 10:57:00,VALID,917.352,VALID,0,VALID,100,VALID,394.414,VALID,20.1072,VALID,35,VALID,0.670732,
2006-11-28, 10:58:00,VALID,917.359,VALID,0,VALID,100,VALID,396.995,VALID,20.2011,VALID,53,VALID,0.703683,
2006-11-28, 10:59:00,VALID,917.361,VALID,0,VALID,100,VALID,391.612,VALID,20.2743,VALID,31,VALID,0.95585,
2006-11-28, 11:00:00,VALID,917.36,VALID,0,VALID,100,VALID,388.029,VALID,20.2391,VALID,38,VALID,1.05108,
2006-11-28, 11:01:00,VALID,917.35,VALID,0,VALID,100,VALID,380.422,VALID,20.255,VALID,55,VALID,0.99349,
2006-11-28, 11:02:00,VALID,917.349,VALID,0,VALID,100,VALID,376.907,VALID,20.3354,VALID,50,VALID,0.408668,
2006-11-28, 11:03:00,VALID,917.327,VALID,0,VALID,100,VALID,373.103,VALID,20.4675,VALID,55,VALID,0.540777,
2006-11-28, 11:04:00,VALID,917.327,VALID,0,VALID,100,VALID,371.184,VALID,20.5487,VALID,55,VALID,0.868096,
2006-11-28, 11:05:00,VALID,917.313,VALID,0,VALID,100,VALID,370.267,VALID,20.5969,VALID,58,VALID,0.789931,
2006-11-28, 11:06:00,VALID,917.29,VALID,0,VALID,100,VALID,370.046,VALID,20.584,VALID,60,VALID,0.802401,
2006-11-28, 11:07:00,VALID,917.279,VALID,0,VALID,100,VALID,370.929,VALID,20.5283,VALID,48,VALID,1.33469,
2006-11-28, 11:08:00,VALID,917.272,VALID,0,VALID,100,VALID,371.659,VALID,20.4285,VALID,56,VALID,1.16959,
2006-11-28, 11:09:00,VALID,917.262,VALID,0,VALID,100,VALID,372.576,VALID,20.3508,VALID,60,VALID,0.75,
2006-11-28, 11:10:00,VALID,917.249,VALID,0,VALID,100,VALID,373.901,VALID,20.399,VALID,56,VALID,1.45796,
2006-11-28, 11:11:00,VALID,917.253,VALID,0,VALID,100,VALID,375.022,VALID,20.3828,VALID,53,VALID,1.19531,
2006-11-28, 11:12:00,VALID,917.243,VALID,0,VALID,100,VALID,375.735,VALID,20.4713,VALID,67,VALID,0.877232,
2006-11-28, 11:13:00,VALID,917.252,VALID,0,VALID,100,VALID,376.635,VALID,20.6096,VALID,75,VALID,0.652798,
2006-11-28, 11:14:00,VALID,917.243,VALID,0,VALID,100,VALID,377.806,VALID,20.7002,VALID,63,VALID,1.19587,
2006-11-28, 11:15:00,VALID,917.251,VALID,0,VALID,100,VALID,378.774,VALID,20.7228,VALID,53,VALID,1.5952,
2006-11-28, 11:16:00,VALID,917.243,VALID,0,VALID,100,VALID,379.997,VALID,20.6607,VALID,46,VALID,0.952195,
2006-11-28, 11:17:00,VALID,917.242,VALID,0,VALID,100,VALID,381.152,VALID,20.7508,VALID,44,VALID,0.685938,
2006-11-28, 11:18:00,VALID,917.241,VALID,0,VALID,100,VALID,382.238,VALID,20.8638,VALID,55,VALID,0.69122,
2006-11-28, 11:19:00,VALID,917.232,VALID,0,VALID,100,VALID,384.14,VALID,20.9117,VALID,28,VALID,1.51154,
2006-11-28, 11:20:00,VALID,917.237,VALID,0,VALID,100,VALID,385.737,VALID,20.767,VALID,46,VALID,1.22452,
2006-11-28, 11:21:00,VALID,917.229,VALID,0,VALID,100,VALID,388.386,VALID,20.838,VALID,21,VALID,0.927269,
2006-11-28, 11:22:00,VALID,917.228,VALID,0,VALID,100,VALID,391.323,VALID,20.922,VALID,74,VALID,0.59266,
2006-11-28, 11:23:00,VALID,917.213,VALID,0,VALID,100,VALID,397.504,VALID,21.0506,VALID,51,VALID,0.59189,
2006-11-28, 11:24:00,VALID,917.226,VALID,0,VALID,100,VALID,407.064,VALID,21.1181,VALID,51,VALID,0.816679,
2006-11-28, 11:25:00,VALID,917.206,VALID,0,VALID,100,VALID,419.902,VALID,21.1025,VALID,52,VALID,1.13053,
2006-11-28, 11:26:00,VALID,917.19,VALID,0,VALID,99.7243,VALID,438.768,VALID,21.0048,VALID,64,VALID,1.18441,
2006-11-28, 11:27:00,VALID,917.176,VALID,0,VALID,100,VALID,464.528,VALID,21.0659,VALID,65,VALID,1.02663,
2006-11-28, 11:28:00,VALID,917.162,VALID,0,VALID,100,VALID,490.457,VALID,21.1792,VALID,63,VALID,0.733445,
2006-11-28, 11:29:00,VALID,917.15,VALID,0,VALID,99.6732,VALID,524.062,VALID,21.2349,VALID,35,VALID,0.984766,
2006-11-28, 11:30:00,VALID,917.129,VALID,0,VALID,98.8711,VALID,548.328,VALID,21.2629,VALID,18,VALID,0.986662,
2006-11-28, 11:31:00,VALID,917.123,VALID,0,VALID,98.9893,VALID,565.937,VALID,21.2567,VALID,59,VALID,0.834162,
2006-11-28, 11:32:00,VALID,917.117,VALID,0,VALID,98.6791,VALID,588.301,VALID,21.3046,VALID,73,VALID,1.0843,
2006-11-28, 11:33:00,VALID,917.104,VALID,0,VALID,98.5494,VALID,604.161,VALID,21.3918,VALID,78,VALID,0.952217,
2006-11-28, 11:34:00,VALID,917.079,VALID,0,VALID,98.2035,VALID,613.534,VALID,21.4558,VALID,82,VALID,0.971294,
2006-11-28, 11:35:00,VALID,917.068,VALID,0,VALID,98.2378,VALID,617.321,VALID,21.5984,VALID,56,VALID,0.661337,
2006-11-28, 11:36:00,VALID,917.049,VALID,0,VALID,98.2213,VALID,630.668,VALID,21.7015,VALID,109,VALID,0.475472,